Bookmark and Share
Track history (hours):
 

Arklow Raider

Last reported at 2014-Apr-20 20:12 UTC. Time now 2014-Apr-21 04:53 UTC.
Position N 52°58' W 005°30'.

Length 90 m; draft 6 m.

Type: Cargo ship. MMSI: 250001268.

NotesDate/timePositionNaut miles runAvg speedWind from/ knotsBaromVisibWave heightAir tempDewpointWater temp
2014-Apr-20 20:12N 52°58' W 005°30'710.5
2014-Apr-20 19:32N 53°04' W 005°34'4110.4
2014-Apr-20 15:33N 53°41' W 006°06'5 0.1
2014-Apr-18 22:32N 53°43' W 006°13'1 0.9
2014-Apr-18 21:13N 53°44' W 006°11'0 0.0
2014-Apr-18 20:31N 53°44' W 006°11'0 0.0
2014-Apr-18 19:28N 53°44' W 006°11'0 0.0
2014-Apr-18 18:16N 53°44' W 006°11'0 0.0
2014-Apr-18 15:22N 53°44' W 006°11'4 5.2
2014-Apr-18 14:33N 53°40' W 006°08'19 9.4
2014-Apr-18 12:29N 53°20' W 006°07'4 4.0
2014-Apr-18 11:31N 53°21' W 006°13'0 0.0
2014-Apr-18 10:31N 53°21' W 006°13'0 0.0
2014-Apr-18 09:34N 53°21' W 006°13'0 0.0
2014-Apr-18 08:31N 53°21' W 006°13'0 0.0
2014-Apr-18 07:31N 53°21' W 006°13'0 0.0
2014-Apr-18 06:31N 53°21' W 006°13'0 0.0
2014-Apr-18 05:31N 53°21' W 006°13'0 0.0
2014-Apr-18 04:31N 53°21' W 006°13'0 0.0
2014-Apr-18 03:34N 53°21' W 006°13'0 0.0
2014-Apr-18 02:33N 53°21' W 006°13'0 0.0
2014-Apr-18 01:31N 53°21' W 006°13'0 0.0
2014-Apr-18 00:25N 53°21' W 006°13'0 0.0
2014-Apr-17 23:31N 53°21' W 006°13'0 0.0
2014-Apr-17 22:31N 53°21' W 006°13'0 0.0
2014-Apr-17 21:34N 53°21' W 006°13'0 0.0
2014-Apr-17 20:31N 53°21' W 006°13'0 0.0
2014-Apr-17 19:31N 53°21' W 006°13'0 0.0
2014-Apr-17 18:31N 53°21' W 006°13'0 0.0
2014-Apr-17 17:31N 53°21' W 006°13'0 0.0
2014-Apr-17 16:34N 53°21' W 006°13'0 0.0
2014-Apr-17 15:33N 53°21' W 006°13'0 0.0
2014-Apr-17 14:31N 53°21' W 006°13'0 0.0
2014-Apr-17 13:25N 53°21' W 006°13'0 0.0
2014-Apr-17 12:31N 53°21' W 006°13'0 0.0
2014-Apr-17 11:31N 53°21' W 006°13'0 0.0
2014-Apr-17 10:31N 53°21' W 006°13'0 0.0
2014-Apr-17 09:25N 53°21' W 006°13'0 0.0
2014-Apr-17 08:31N 53°21' W 006°13'0 0.0
2014-Apr-17 07:34N 53°21' W 006°13'0 0.0
2014-Apr-17 06:31N 53°21' W 006°13'0 0.0
2014-Apr-17 05:28N 53°21' W 006°13'0 0.0
2014-Apr-17 04:34N 53°21' W 006°13'0 0.0
2014-Apr-17 03:33N 53°21' W 006°13'0 0.0
2014-Apr-17 02:34N 53°21' W 006°13'0 0.0
2014-Apr-17 01:25N 53°21' W 006°13'0 0.0
2014-Apr-17 00:31N 53°21' W 006°13'0 0.0
2014-Apr-16 23:31N 53°21' W 006°13'0 0.0
2014-Apr-16 22:31N 53°21' W 006°13'0 0.0
2014-Apr-16 21:31N 53°21' W 006°13'0 0.0
2014-Apr-16 20:31N 53°21' W 006°13'0 0.0
2014-Apr-16 19:31N 53°21' W 006°13'0 0.0
2014-Apr-16 18:25N 53°21' W 006°13'0 0.0
2014-Apr-16 17:31N 53°21' W 006°13'0 0.0
2014-Apr-16 16:31N 53°21' W 006°13'0 0.0
2014-Apr-16 15:31N 53°21' W 006°13'0 0.0
2014-Apr-16 14:34N 53°21' W 006°13'0 0.0
2014-Apr-16 13:23N 53°21' W 006°13'0 0.0
2014-Apr-16 12:25N 53°21' W 006°13'0 0.0
2014-Apr-16 11:31N 53°21' W 006°13'0 0.0
2014-Apr-16 10:31N 53°21' W 006°13'0 0.0
2014-Apr-16 09:19N 53°21' W 006°13'0 0.0
2014-Apr-16 08:25N 53°21' W 006°13'0 0.0
2014-Apr-16 07:34N 53°21' W 006°13'0 0.0
2014-Apr-16 06:34N 53°21' W 006°13'0 0.0
2014-Apr-16 05:31N 53°21' W 006°13'0 0.0
2014-Apr-16 04:34N 53°21' W 006°13'0 0.0
2014-Apr-16 03:34N 53°21' W 006°13'0 0.0
2014-Apr-16 02:31N 53°21' W 006°13'0 0.0
2014-Apr-16 01:10N 53°21' W 006°13'0 0.0
2014-Apr-15 21:04N 53°21' W 006°13'0 0.0
2014-Apr-15 20:33N 53°21' W 006°13'0 0.0
2014-Apr-15 19:21N 53°21' W 006°13'0 0.0
2014-Apr-15 18:28N 53°21' W 006°13'0 0.0
2014-Apr-15 17:33N 53°21' W 006°13'0 0.0
2014-Apr-15 16:28N 53°21' W 006°13'0 0.0
2014-Apr-15 15:28N 53°21' W 006°13'0 0.0
2014-Apr-15 02:34N 53°21' W 006°13'0 0.0
2014-Apr-15 00:31N 53°21' W 006°13'0 0.0
2014-Apr-14 23:34N 53°21' W 006°13'0 0.0
2014-Apr-14 22:31N 53°21' W 006°13'0 0.0
2014-Apr-14 20:31N 53°21' W 006°13'0 0.0
2014-Apr-14 19:31N 53°21' W 006°13'0 0.0
2014-Apr-14 18:31N 53°21' W 006°13'0 0.0
2014-Apr-14 17:34N 53°21' W 006°13'0 0.0
2014-Apr-14 16:31N 53°21' W 006°13'0 0.0
2014-Apr-14 14:34N 53°21' W 006°13'0 0.0
2014-Apr-14 13:31N 53°21' W 006°13'0 0.0
2014-Apr-14 11:31N 53°21' W 006°13'0 0.0
2014-Apr-14 10:31N 53°21' W 006°13'0 0.0
2014-Apr-14 08:31N 53°21' W 006°13'0 0.0
2014-Apr-14 07:31N 53°21' W 006°13'0 0.0
2014-Apr-14 06:31N 53°21' W 006°13'0 0.0
2014-Apr-14 05:34N 53°21' W 006°13'0 0.0
2014-Apr-13 22:31N 53°21' W 006°13'0 0.0
2014-Apr-13 21:33N 53°21' W 006°13'0 0.0
2014-Apr-13 20:29N 53°21' W 006°13'0 0.0
2014-Apr-13 19:17N 53°21' W 006°13'0 0.0
2014-Apr-13 18:32N 53°21' W 006°13'0 0.0
2014-Apr-13 17:30N 53°21' W 006°13'0 0.0
2014-Apr-13 16:32N 53°21' W 006°13'0 0.0
2014-Apr-13 15:32N 53°21' W 006°13'0 0.0
2014-Apr-13 14:28N 53°21' W 006°13'0 0.0
2014-Apr-13 13:31N 53°21' W 006°13'0 0.0
2014-Apr-13 12:18N 53°21' W 006°13'0 0.0
2014-Apr-13 11:27N 53°21' W 006°13'0 0.0
2014-Apr-13 08:14N 53°21' W 006°13'0 0.0
2014-Apr-13 07:26N 53°21' W 006°13'0 0.0
2014-Apr-13 06:33N 53°21' W 006°13'0 0.0
2014-Apr-13 05:33N 53°21' W 006°13'0 0.0
2014-Apr-13 04:33N 53°21' W 006°13'0 0.0
2014-Apr-13 03:33N 53°21' W 006°13'0 0.0
2014-Apr-13 02:33N 53°21' W 006°13'0 0.0
2014-Apr-13 01:33N 53°21' W 006°13'0 0.0
2014-Apr-13 00:33N 53°21' W 006°13'0 0.0
2014-Apr-12 23:33N 53°21' W 006°13'0 0.0
2014-Apr-12 22:32N 53°21' W 006°13'0 0.0
2014-Apr-12 21:33N 53°21' W 006°13'0 0.0
2014-Apr-12 20:32N 53°21' W 006°13'0 0.0
2014-Apr-12 19:32N 53°21' W 006°13'0 0.0
2014-Apr-12 18:32N 53°21' W 006°13'0 0.0
2014-Apr-12 17:32N 53°21' W 006°13'0 0.0
2014-Apr-12 16:30N 53°21' W 006°13'0 0.0
2014-Apr-12 15:26N 53°21' W 006°13'0 0.0
2014-Apr-12 14:27N 53°21' W 006°13'0 0.0
2014-Apr-12 13:33N 53°21' W 006°13'0 0.0
2014-Apr-12 12:32N 53°21' W 006°13'0 0.0
2014-Apr-12 11:33N 53°21' W 006°13'0 0.0
2014-Apr-12 10:33N 53°21' W 006°13'0 0.0
2014-Apr-12 09:33N 53°21' W 006°13'2 1.9
2014-Apr-12 08:32N 53°21' W 006°10'7211.9
2014-Apr-12 02:28N 53°35' W 004°12'2613.5
2014-Apr-12 00:33N 53°34' W 003°28'1212.1
2014-Apr-11 23:34N 53°32' W 003°08'1414.0
2014-Apr-11 22:34N 53°19' W 002°57'  

Dump ship's entire track history

sailing weather and tide predictions

Arklow Raider — EIXS — position and weather